Time,TemperatureF,DewpointF,PressureIn,WindDirection,WindDirectionDegrees,WindSpeedMPH,WindSpeedGustMPH,Humidity,HourlyPrecipIn,Conditions,Clouds,dailyrainin,SoftwareType,DateUTC
2013-05-13 00:01:00,44.5,33.7,29.87,WSW,247,9.3,9.3,65,-99.99,,,-99.99,tws,2013-05-13 04:01:00,
2013-05-13 00:02:00,44.6,33.8,29.87,SW,225,8.8,8.8,65,-99.99,,,-99.99,tws,2013-05-13 04:02:00,
2013-05-13 00:03:00,44.4,33.8,29.87,SW,225,6.4,6.4,66,-99.99,,,-99.99,tws,2013-05-13 04:03:00,
2013-05-13 00:08:00,44.4,33.8,29.87,WSW,247,8.5,8.5,66,-99.99,,,-99.99,tws,2013-05-13 04:08:00,
2013-05-13 00:09:00,44.4,33.6,29.87,WSW,247,5.0,5.0,65,-99.99,,,-99.99,tws,2013-05-13 04:09:00,
2013-05-13 00:14:00,44.2,33.8,29.87,West,270,5.2,5.2,66,-99.99,,,-99.99,tws,2013-05-13 04:14:00,
2013-05-13 00:19:00,44.3,33.9,29.87,WSW,247,8.1,8.1,66,-99.99,,,-99.99,tws,2013-05-13 04:19:00,
2013-05-13 00:23:00,44.1,33.8,29.87,SW,225,1.6,1.6,66,-99.99,,,-99.99,tws,2013-05-13 04:23:00,
2013-05-13 00:28:00,44.4,33.8,29.87,WSW,247,2.4,2.4,66,-99.99,,,-99.99,tws,2013-05-13 04:28:00,
2013-05-13 00:33:00,43.6,33.4,29.88,West,270,5.6,5.6,67,-99.99,,,-99.99,tws,2013-05-13 04:33:00,
2013-05-13 00:38:00,44.0,33.5,29.89,WSW,247,7.9,7.9,66,-99.99,,,-99.99,tws,2013-05-13 04:38:00,
2013-05-13 00:43:00,43.6,33.2,29.88,West,270,5.5,5.5,66,-99.99,,,-99.99,tws,2013-05-13 04:43:00,
2013-05-13 00:48:00,44.0,33.5,29.89,West,270,11.1,11.1,66,-99.99,,,-99.99,tws,2013-05-13 04:48:00,
2013-05-13 00:53:00,44.1,33.5,29.89,WNW,292,6.0,6.0,66,-99.99,,,-99.99,tws,2013-05-13 04:53:00,
2013-05-13 00:58:00,44.1,33.2,29.89,West,270,9.3,9.3,65,-99.99,,,-99.99,tws,2013-05-13 04:58:00,
2013-05-13 01:03:00,44.1,33.1,29.89,WNW,292,5.3,5.3,65,-99.99,,,-99.99,tws,2013-05-13 05:03:00,
2013-05-13 01:08:00,44.4,32.4,29.89,NW,315,12.7,12.7,62,-99.99,,,-99.99,tws,2013-05-13 05:08:00,
2013-05-13 01:13:00,44.6,32.3,29.89,NW,315,10.4,10.4,61,-99.99,,,-99.99,tws,2013-05-13 05:13:00,
2013-05-13 01:18:00,44.8,32.2,29.89,WSW,247,9.2,9.2,60,-99.99,,,-99.99,tws,2013-05-13 05:18:00,
2013-05-13 01:23:00,44.8,32.0,29.89,West,270,12.2,12.2,60,-99.99,,,-99.99,tws,2013-05-13 05:23:00,
2013-05-13 01:28:00,44.7,32.0,29.89,West,270,11.2,11.2,60,-99.99,,,-99.99,tws,2013-05-13 05:28:00,
2013-05-13 01:33:00,44.7,31.9,29.89,WSW,247,8.9,8.9,60,-99.99,,,-99.99,tws,2013-05-13 05:33:00,
2013-05-13 01:38:00,44.5,31.5,29.90,West,270,13.3,13.3,59,-99.99,,,-99.99,tws,2013-05-13 05:38:00,
2013-05-13 01:43:00,45.0,31.3,29.89,WNW,292,14.7,14.7,58,-99.99,,,-99.99,tws,2013-05-13 05:43:00,
2013-05-13 01:48:00,44.6,31.4,29.90,WSW,247,14.0,14.0,59,-99.99,,,-99.99,tws,2013-05-13 05:48:00,
2013-05-13 01:53:00,44.5,31.5,29.90,West,270,11.8,11.8,59,-99.99,,,-99.99,tws,2013-05-13 05:53:00,
2013-05-13 01:58:00,44.4,31.7,29.90,West,270,11.2,11.2,60,-99.99,,,-99.99,tws,2013-05-13 05:58:00,
2013-05-13 02:03:00,44.1,32.1,29.90,SW,225,2.6,2.6,62,-99.99,,,-99.99,tws,2013-05-13 06:03:00,
2013-05-13 02:08:00,44.4,31.7,29.90,WSW,247,4.8,4.8,60,-99.99,,,-99.99,tws,2013-05-13 06:08:00,
2013-05-13 02:13:00,44.3,31.5,29.89,West,270,6.6,6.6,60,-99.99,,,-99.99,tws,2013-05-13 06:13:00,
2013-05-13 02:18:00,44.2,31.9,29.90,West,270,7.0,7.0,61,-99.99,,,-99.99,tws,2013-05-13 06:18:00,
2013-05-13 02:23:00,43.8,31.8,29.90,SSW,202,1.4,1.4,62,-99.99,,,-99.99,tws,2013-05-13 06:23:00,
2013-05-13 02:28:00,44.1,32.4,29.90,WSW,247,0.7,0.7,63,-99.99,,,-99.99,tws,2013-05-13 06:28:00,
2013-05-13 02:33:00,43.8,32.2,29.89,WSW,247,5.8,5.8,63,-99.99,,,-99.99,tws,2013-05-13 06:33:00,
2013-05-13 02:38:00,43.3,32.8,29.90,SW,225,5.9,5.9,66,-99.99,,,-99.99,tws,2013-05-13 06:38:00,
2013-05-13 02:43:00,42.3,34.0,29.90,SE,135,4.3,4.3,72,-99.99,,,-99.99,tws,2013-05-13 06:43:00,
2013-05-13 02:48:00,41.7,33.8,29.90,SSW,202,6.9,6.9,73,-99.99,,,-99.99,tws,2013-05-13 06:48:00,
2013-05-13 02:53:00,42.8,32.5,29.90,WSW,247,6.4,6.4,66,-99.99,,,-99.99,tws,2013-05-13 06:53:00,
2013-05-13 02:58:00,42.2,34.7,29.90,NW,315,2.0,2.0,74,-99.99,,,-99.99,tws,2013-05-13 06:58:00,
2013-05-13 03:03:00,41.8,33.9,29.90,WSW,247,3.4,3.4,73,-99.99,,,-99.99,tws,2013-05-13 07:03:00,
2013-05-13 03:08:00,43.7,31.1,29.90,WSW,247,16.8,16.8,60,-99.99,,,-99.99,tws,2013-05-13 07:08:00,
2013-05-13 03:13:00,43.8,30.2,29.90,West,270,14.5,14.5,58,-99.99,,,-99.99,tws,2013-05-13 07:13:00,
2013-05-13 03:18:00,44.2,30.4,29.90,WSW,247,4.2,4.2,58,-99.99,,,-99.99,tws,2013-05-13 07:18:00,
2013-05-13 03:23:00,44.1,30.3,29.90,West,270,11.4,11.4,58,-99.99,,,-99.99,tws,2013-05-13 07:23:00,
2013-05-13 03:28:00,44.4,30.6,29.89,WNW,292,4.9,4.9,58,-99.99,,,-99.99,tws,2013-05-13 07:28:00,
2013-05-13 03:33:00,44.2,30.7,29.89,West,270,4.6,4.6,58,-99.99,,,-99.99,tws,2013-05-13 07:33:00,
2013-05-13 03:38:00,44.3,30.3,29.90,West,270,8.4,8.4,57,-99.99,,,-99.99,tws,2013-05-13 07:38:00,
2013-05-13 03:43:00,43.8,30.2,29.90,WSW,247,7.4,7.4,58,-99.99,,,-99.99,tws,2013-05-13 07:43:00,
2013-05-13 03:48:00,43.5,30.3,29.90,WSW,247,6.1,6.1,59,-99.99,,,-99.99,tws,2013-05-13 07:48:00,
2013-05-13 03:53:00,43.8,30.3,29.90,WSW,247,5.8,5.8,58,-99.99,,,-99.99,tws,2013-05-13 07:53:00,
2013-05-13 03:58:00,43.2,30.2,29.90,SW,225,4.5,4.5,59,-99.99,,,-99.99,tws,2013-05-13 07:58:00,
2013-05-13 04:03:00,43.3,30.3,29.90,West,270,8.1,8.1,59,-99.99,,,-99.99,tws,2013-05-13 08:03:00,
2013-05-13 04:08:00,43.3,30.3,29.90,West,270,7.1,7.1,59,-99.99,,,-99.99,tws,2013-05-13 08:08:00,
2013-05-13 04:13:00,43.0,30.2,29.91,WNW,292,5.0,5.0,60,-99.99,,,-99.99,tws,2013-05-13 08:13:00,
2013-05-13 04:18:00,43.4,29.7,29.91,WSW,247,9.4,9.4,58,-99.99,,,-99.99,tws,2013-05-13 08:18:00,
2013-05-13 04:23:00,43.6,29.1,29.91,WSW,247,20.3,20.3,56,-99.99,,,-99.99,tws,2013-05-13 08:23:00,
2013-05-13 04:28:00,43.7,28.7,29.90,West,270,17.1,17.1,55,-99.99,,,-99.99,tws,2013-05-13 08:28:00,
2013-05-13 04:33:00,43.8,28.6,29.90,WNW,292,27.6,27.6,54,-99.99,,,-99.99,tws,2013-05-13 08:33:00,
2013-05-13 04:38:00,43.6,28.5,29.91,West,270,25.6,25.6,54,-99.99,,,-99.99,tws,2013-05-13 08:38:00,
2013-05-13 04:43:00,43.6,28.8,29.90,WSW,247,17.4,17.4,55,-99.99,,,-99.99,tws,2013-05-13 08:43:00,
2013-05-13 04:48:00,43.3,28.6,29.90,WNW,292,15.1,15.1,55,-99.99,,,-99.99,tws,2013-05-13 08:48:00,
2013-05-13 04:53:00,43.5,28.3,29.90,NNW,337,10.3,10.3,54,-99.99,,,-99.99,tws,2013-05-13 08:53:00,
2013-05-13 04:58:00,43.2,28.3,29.90,West,270,6.2,6.2,55,-99.99,,,-99.99,tws,2013-05-13 08:58:00,
2013-05-13 05:03:00,43.2,28.3,29.91,West,270,9.9,9.9,55,-99.99,,,-99.99,tws,2013-05-13 09:03:00,
2013-05-13 05:08:00,43.0,28.2,29.91,WSW,247,9.7,9.7,55,-99.99,,,-99.99,tws,2013-05-13 09:08:00,
2013-05-13 05:13:00,42.3,28.6,29.91,WNW,292,5.8,5.8,58,-99.99,,,-99.99,tws,2013-05-13 09:13:00,
2013-05-13 05:18:00,42.7,28.7,29.91,WSW,247,1.6,1.6,57,-99.99,,,-99.99,tws,2013-05-13 09:18:00,
2013-05-13 05:23:00,42.8,28.6,29.91,WSW,247,6.9,6.9,56,-99.99,,,-99.99,tws,2013-05-13 09:23:00,
2013-05-13 05:28:00,42.5,28.8,29.91,WSW,247,3.2,3.2,58,-99.99,,,-99.99,tws,2013-05-13 09:28:00,
2013-05-13 05:33:00,42.3,28.6,29.91,SW,225,0.2,0.2,58,-99.99,,,-99.99,tws,2013-05-13 09:33:00,
2013-05-13 05:38:00,42.2,28.6,29.91,WSW,247,4.9,4.9,58,-99.99,,,-99.99,tws,2013-05-13 09:38:00,
2013-05-13 05:43:00,41.7,28.3,29.91,West,270,7.7,7.7,58,-99.99,,,-99.99,tws,2013-05-13 09:43:00,
2013-05-13 05:48:00,42.0,28.4,29.91,WSW,247,4.5,4.5,58,-99.99,,,-99.99,tws,2013-05-13 09:48:00,
2013-05-13 05:53:00,42.0,29.0,29.91,WSW,247,3.5,3.5,59,-99.99,,,-99.99,tws,2013-05-13 09:53:00,
2013-05-13 05:58:00,41.9,29.2,29.91,SW,225,3.3,3.3,60,-99.99,,,-99.99,tws,2013-05-13 09:58:00,
2013-05-13 06:03:00,41.8,29.5,29.92,SW,225,7.1,7.1,61,-99.99,,,-99.99,tws,2013-05-13 10:03:00,
2013-05-13 06:08:00,42.2,29.3,29.93,West,270,7.2,7.2,60,-99.99,,,-99.99,tws,2013-05-13 10:08:00,
2013-05-13 06:13:00,41.9,29.9,29.93,WSW,247,2.9,2.9,62,-99.99,,,-99.99,tws,2013-05-13 10:13:00,
2013-05-13 06:18:00,41.4,30.0,29.93,WNW,292,2.2,2.2,63,-99.99,,,-99.99,tws,2013-05-13 10:18:00,
2013-05-13 06:23:00,41.4,30.1,29.93,NW,315,4.5,4.5,63,-99.99,,,-99.99,tws,2013-05-13 10:23:00,
2013-05-13 06:28:00,41.6,30.0,29.94,NW,315,0.0,0.0,63,-99.99,,,-99.99,tws,2013-05-13 10:28:00,
2013-05-13 06:33:00,42.0,30.9,29.93,West,270,0.0,0.0,64,-99.99,,,-99.99,tws,2013-05-13 10:33:00,
2013-05-13 06:38:00,41.8,32.1,29.94,WSW,247,1.2,1.2,68,-99.99,,,-99.99,tws,2013-05-13 10:38:00,
2013-05-13 06:43:00,41.8,32.7,29.94,SSW,202,2.2,2.2,69,-99.99,,,-99.99,tws,2013-05-13 10:43:00,
2013-05-13 06:48:00,42.2,33.1,29.95,ESE,112,3.3,3.3,70,-99.99,,,-99.99,tws,2013-05-13 10:48:00,
2013-05-13 06:53:00,42.2,34.2,29.95,SE,135,5.2,5.2,73,-99.99,,,-99.99,tws,2013-05-13 10:53:00,
2013-05-13 06:58:00,42.7,35.3,29.95,South,180,0.1,0.1,74,-99.99,,,-99.99,tws,2013-05-13 10:58:00,
2013-05-13 07:03:00,43.4,34.9,29.95,SSE,157,0.0,0.0,71,-99.99,,,-99.99,tws,2013-05-13 11:03:00,
2013-05-13 07:08:00,43.8,33.1,29.95,SSE,157,0.6,0.6,65,-99.99,,,-99.99,tws,2013-05-13 11:08:00,
2013-05-13 07:13:00,44.2,31.2,29.95,West,270,0.0,0.0,59,-99.99,,,-99.99,tws,2013-05-13 11:13:00,
2013-05-13 07:18:00,43.3,32.1,29.95,NW,315,0.1,0.1,64,-99.99,,,-99.99,tws,2013-05-13 11:18:00,
2013-05-13 07:23:00,43.3,30.7,29.95,WSW,247,0.4,0.4,60,-99.99,,,-99.99,tws,2013-05-13 11:23:00,
2013-05-13 07:28:00,44.5,30.9,29.95,West,270,1.8,1.8,58,-99.99,,,-99.99,tws,2013-05-13 11:28:00,
2013-05-13 07:33:00,44.0,30.5,29.96,WSW,247,0.9,0.9,58,-99.99,,,-99.99,tws,2013-05-13 11:33:00,
2013-05-13 07:38:00,43.8,31.1,29.96,WNW,292,1.2,1.2,60,-99.99,,,-99.99,tws,2013-05-13 11:38:00,
2013-05-13 07:43:00,43.3,29.0,29.96,West,270,14.0,14.0,56,-99.99,,,-99.99,tws,2013-05-13 11:43:00,
2013-05-13 07:48:00,44.0,30.3,29.96,West,270,3.8,3.8,58,-99.99,,,-99.99,tws,2013-05-13 11:48:00,
2013-05-13 07:53:00,44.5,30.0,29.96,NNW,337,2.5,2.5,56,-99.99,,,-99.99,tws,2013-05-13 11:53:00,
2013-05-13 07:58:00,44.8,30.0,29.97,West,270,7.2,7.2,55,-99.99,,,-99.99,tws,2013-05-13 11:58:00,
2013-05-13 08:03:00,45.2,29.4,29.97,West,270,2.8,2.8,53,-99.99,,,-99.99,tws,2013-05-13 12:03:00,
2013-05-13 08:08:00,45.0,28.8,29.97,West,270,0.4,0.4,52,-99.99,,,-99.99,tws,2013-05-13 12:08:00,
2013-05-13 08:13:00,45.4,29.8,29.97,WNW,292,8.6,8.6,54,-99.99,,,-99.99,tws,2013-05-13 12:13:00,
2013-05-13 08:18:00,44.6,28.6,29.97,WNW,292,12.1,12.1,52,-99.99,,,-99.99,tws,2013-05-13 12:18:00,
2013-05-13 08:23:00,45.2,29.4,29.97,NW,315,13.6,13.6,53,-99.99,,,-99.99,tws,2013-05-13 12:23:00,
2013-05-13 08:28:00,45.4,30.2,29.98,WNW,292,0.1,0.1,54,-99.99,,,-99.99,tws,2013-05-13 12:28:00,
2013-05-13 08:33:00,45.2,29.8,29.98,NNW,337,1.1,1.1,54,-99.99,,,-99.99,tws,2013-05-13 12:33:00,
2013-05-13 08:38:00,46.4,31.6,29.98,North,360,4.8,4.8,55,-99.99,,,-99.99,tws,2013-05-13 12:38:00,
2013-05-13 08:43:00,45.5,29.6,29.98,North,360,3.7,3.7,53,-99.99,,,-99.99,tws,2013-05-13 12:43:00,
2013-05-13 08:48:00,47.2,31.3,29.98,NE,45,0.0,0.0,53,-99.99,,,-99.99,tws,2013-05-13 12:48:00,
2013-05-13 08:53:00,47.0,30.3,29.98,West,270,1.2,1.2,51,-99.99,,,-99.99,tws,2013-05-13 12:53:00,
2013-05-13 08:58:00,47.5,31.8,29.98,North,360,0.0,0.0,54,-99.99,,,-99.99,tws,2013-05-13 12:58:00,
2013-05-13 09:03:00,44.8,28.9,29.98,WSW,247,13.3,13.3,53,-99.99,,,-99.99,tws,2013-05-13 13:03:00,
2013-05-13 09:08:00,45.7,29.3,29.98,WSW,247,5.8,5.8,52,-99.99,,,-99.99,tws,2013-05-13 13:08:00,
2013-05-13 09:13:00,46.3,30.5,29.98,West,270,8.3,8.3,53,-99.99,,,-99.99,tws,2013-05-13 13:13:00,
2013-05-13 09:18:00,45.2,29.9,29.98,WSW,247,15.9,15.9,54,-99.99,,,-99.99,tws,2013-05-13 13:18:00,
2013-05-13 09:23:00,46.7,30.4,29.98,West,270,2.4,2.4,52,-99.99,,,-99.99,tws,2013-05-13 13:23:00,
2013-05-13 09:28:00,46.0,30.5,29.98,West,270,4.7,4.7,54,-99.99,,,-99.99,tws,2013-05-13 13:28:00,
2013-05-13 09:33:00,45.6,29.8,29.98,West,270,4.2,4.2,53,-99.99,,,-99.99,tws,2013-05-13 13:33:00,
2013-05-13 09:38:00,46.2,30.8,29.98,NW,315,6.0,6.0,54,-99.99,,,-99.99,tws,2013-05-13 13:38:00,
2013-05-13 09:43:00,46.8,30.9,29.98,WNW,292,7.6,7.6,53,-99.99,,,-99.99,tws,2013-05-13 13:43:00,
2013-05-13 09:48:00,47.0,31.0,29.98,NW,315,4.4,4.4,53,-99.99,,,-99.99,tws,2013-05-13 13:48:00,
2013-05-13 09:53:00,48.3,31.2,29.99,NE,45,8.6,8.6,51,-99.99,,,-99.99,tws,2013-05-13 13:53:00,
2013-05-13 09:58:00,48.5,31.7,29.99,West,270,0.1,0.1,52,-99.99,,,-99.99,tws,2013-05-13 13:58:00,
2013-05-13 10:03:00,47.7,31.8,29.99,West,270,3.0,3.0,53,-99.99,,,-99.99,tws,2013-05-13 14:03:00,
2013-05-13 10:08:00,48.5,31.3,29.99,West,270,0.0,0.0,51,-99.99,,,-99.99,tws,2013-05-13 14:08:00,
2013-05-13 10:13:00,50.1,33.9,30.00,West,270,1.6,1.6,53,-99.99,,,-99.99,tws,2013-05-13 14:13:00,
2013-05-13 10:18:00,48.3,30.6,29.99,South,180,14.3,14.3,49,-99.99,,,-99.99,tws,2013-05-13 14:18:00,
2013-05-13 10:23:00,48.9,31.6,30.00,SSE,157,5.1,5.1,50,-99.99,,,-99.99,tws,2013-05-13 14:23:00,
2013-05-13 10:28:00,49.5,31.9,30.00,South,180,2.5,2.5,50,-99.99,,,-99.99,tws,2013-05-13 14:28:00,
2013-05-13 10:33:00,49.1,31.7,29.99,ENE,67,0.9,0.9,50,-99.99,,,-99.99,tws,2013-05-13 14:33:00,
2013-05-13 10:38:00,49.8,32.1,30.00,WSW,247,3.6,3.6,50,-99.99,,,-99.99,tws,2013-05-13 14:38:00,
2013-05-13 10:43:00,47.8,31.2,30.00,WNW,292,7.4,7.4,52,-99.99,,,-99.99,tws,2013-05-13 14:43:00,
2013-05-13 10:48:00,47.7,31.2,30.00,West,270,10.6,10.6,52,-99.99,,,-99.99,tws,2013-05-13 14:48:00,
2013-05-13 10:53:00,47.3,30.0,30.00,West,270,6.3,6.3,50,-99.99,,,-99.99,tws,2013-05-13 14:53:00,
2013-05-13 10:58:00,47.2,30.0,30.00,WNW,292,4.3,4.3,50,-99.99,,,-99.99,tws,2013-05-13 14:58:00,
2013-05-13 11:03:00,48.5,31.7,30.00,NNW,337,4.7,4.7,52,-99.99,,,-99.99,tws,2013-05-13 15:03:00,
2013-05-13 11:08:00,48.2,31.7,30.00,NW,315,2.9,2.9,52,-99.99,,,-99.99,tws,2013-05-13 15:08:00,
2013-05-13 11:13:00,47.4,29.9,30.00,West,270,8.6,8.6,50,-99.99,,,-99.99,tws,2013-05-13 15:13:00,
2013-05-13 11:18:00,47.5,29.2,30.00,West,270,9.5,9.5,48,-99.99,,,-99.99,tws,2013-05-13 15:18:00,
2013-05-13 11:23:00,49.3,31.0,30.00,West,270,2.0,2.0,48,-99.99,,,-99.99,tws,2013-05-13 15:23:00,
2013-05-13 11:28:00,47.3,29.1,30.00,West,270,16.1,16.1,48,-99.99,,,-99.99,tws,2013-05-13 15:28:00,
2013-05-13 11:33:00,48.8,31.1,30.00,West,270,3.9,3.9,50,-99.99,,,-99.99,tws,2013-05-13 15:33:00,
2013-05-13 11:38:00,49.7,31.2,30.00,WSW,247,3.7,3.7,48,-99.99,,,-99.99,tws,2013-05-13 15:38:00,
2013-05-13 11:43:00,50.6,31.3,30.00,WSW,247,0.6,0.6,47,-99.99,,,-99.99,tws,2013-05-13 15:43:00,
2013-05-13 11:49:00,48.7,30.1,30.00,West,270,2.9,2.9,48,-99.99,,,-99.99,tws,2013-05-13 15:49:00,
2013-05-13 11:54:00,48.8,30.0,30.00,WSW,247,7.9,7.9,47,-99.99,,,-99.99,tws,2013-05-13 15:54:00,
2013-05-13 11:59:00,50.1,30.6,30.00,WSW,247,0.9,0.9,46,-99.99,,,-99.99,tws,2013-05-13 15:59:00,
2013-05-13 12:04:00,49.7,31.4,30.00,ENE,67,0.0,0.0,48,-99.99,,,-99.99,tws,2013-05-13 16:04:00,
2013-05-13 12:09:00,50.2,32.2,30.00,North,360,0.2,0.2,49,-99.99,,,-99.99,tws,2013-05-13 16:09:00,
2013-05-13 12:14:00,50.4,32.5,30.00,NNE,22,0.0,0.0,50,-99.99,,,-99.99,tws,2013-05-13 16:14:00,
2013-05-13 12:19:00,48.7,30.2,30.00,North,0,11.1,11.1,48,-99.99,,,-99.99,tws,2013-05-13 16:19:00,
2013-05-13 12:24:00,49.5,31.0,30.00,NNW,337,8.8,8.8,48,-99.99,,,-99.99,tws,2013-05-13 16:24:00,
2013-05-13 12:29:00,51.4,32.9,30.00,NNW,337,4.4,4.4,48,-99.99,,,-99.99,tws,2013-05-13 16:29:00,
2013-05-13 12:34:00,52.4,34.1,30.00,NE,45,2.6,2.6,49,-99.99,,,-99.99,tws,2013-05-13 16:34:00,
2013-05-13 12:40:00,51.0,32.3,30.00,North,0,3.0,3.0,48,-99.99,,,-99.99,tws,2013-05-13 16:40:00,
2013-05-13 12:45:00,49.5,31.4,30.00,WNW,292,12.6,12.6,49,-99.99,,,-99.99,tws,2013-05-13 16:45:00,
2013-05-13 12:51:00,50.4,32.7,30.00,NE,45,2.6,2.6,50,-99.99,,,-99.99,tws,2013-05-13 16:51:00,
2013-05-13 12:57:00,50.6,33.4,30.00,NNW,337,0.0,0.0,51,-99.99,,,-99.99,tws,2013-05-13 16:57:00,
2013-05-13 13:02:00,50.2,32.3,30.00,NW,315,5.7,5.7,49,-99.99,,,-99.99,tws,2013-05-13 17:02:00,
2013-05-13 13:07:00,49.7,30.3,30.01,NW,315,8.6,8.6,46,-99.99,,,-99.99,tws,2013-05-13 17:07:00,
2013-05-13 13:13:00,50.6,31.4,30.00,WNW,292,1.7,1.7,47,-99.99,,,-99.99,tws,2013-05-13 17:13:00,
2013-05-13 13:18:00,52.6,33.6,30.00,WSW,247,6.1,6.1,48,-99.99,,,-99.99,tws,2013-05-13 17:18:00,
2013-05-13 13:23:00,50.6,30.5,30.00,NNW,337,9.5,9.5,45,-99.99,,,-99.99,tws,2013-05-13 17:23:00,
2013-05-13 13:28:00,51.3,32.5,30.00,WSW,247,10.8,10.8,48,-99.99,,,-99.99,tws,2013-05-13 17:28:00,
2013-05-13 13:34:00,51.7,32.9,30.00,SW,225,10.3,10.3,48,-99.99,,,-99.99,tws,2013-05-13 17:34:00,
2013-05-13 13:39:00,51.2,33.0,30.00,NW,315,6.6,6.6,49,-99.99,,,-99.99,tws,2013-05-13 17:39:00,
2013-05-13 13:44:00,52.5,32.9,30.00,NNE,22,1.2,1.2,46,-99.99,,,-99.99,tws,2013-05-13 17:44:00,
2013-05-13 13:49:00,51.0,31.4,30.00,NNE,22,2.6,2.6,46,-99.99,,,-99.99,tws,2013-05-13 17:49:00,
2013-05-13 13:54:00,50.1,32.3,30.00,WNW,292,2.5,2.5,50,-99.99,,,-99.99,tws,2013-05-13 17:54:00,
2013-05-13 13:59:00,49.5,31.5,30.00,West,270,10.1,10.1,49,-99.99,,,-99.99,tws,2013-05-13 17:59:00,
2013-05-13 14:04:00,49.5,31.6,30.00,NW,315,8.8,8.8,49,-99.99,,,-99.99,tws,2013-05-13 18:04:00,
2013-05-13 14:09:00,49.5,30.2,30.00,WNW,292,5.3,5.3,47,-99.99,,,-99.99,tws,2013-05-13 18:09:00,
2013-05-13 14:14:00,48.6,30.6,30.01,NW,315,11.4,11.4,49,-99.99,,,-99.99,tws,2013-05-13 18:14:00,
2013-05-13 14:19:00,48.7,30.9,30.00,WNW,292,5.6,5.6,49,-99.99,,,-99.99,tws,2013-05-13 18:19:00,
2013-05-13 14:24:00,49.5,31.7,30.01,WNW,292,3.4,3.4,49,-99.99,,,-99.99,tws,2013-05-13 18:24:00,
2013-05-13 14:29:00,49.5,31.6,30.01,NW,315,2.5,2.5,49,-99.99,,,-99.99,tws,2013-05-13 18:29:00,
2013-05-13 14:34:00,51.0,32.9,30.00,NNE,22,6.8,6.8,49,-99.99,,,-99.99,tws,2013-05-13 18:34:00,
2013-05-13 14:39:00,50.0,31.9,30.00,NW,315,9.5,9.5,49,-99.99,,,-99.99,tws,2013-05-13 18:39:00,
2013-05-13 14:44:00,50.0,32.1,30.00,NW,315,7.8,7.8,49,-99.99,,,-99.99,tws,2013-05-13 18:44:00,
2013-05-13 14:49:00,49.3,31.0,30.00,WNW,292,13.5,13.5,48,-99.99,,,-99.99,tws,2013-05-13 18:49:00,
2013-05-13 14:54:00,50.2,32.8,30.00,NW,315,1.2,1.2,50,-99.99,,,-99.99,tws,2013-05-13 18:54:00,
2013-05-13 14:59:00,49.7,32.0,30.00,NW,315,9.3,9.3,50,-99.99,,,-99.99,tws,2013-05-13 18:59:00,
2013-05-13 15:04:00,49.3,31.0,30.00,NW,315,11.3,11.3,48,-99.99,,,-99.99,tws,2013-05-13 19:04:00,
2013-05-13 15:09:00,51.3,34.0,30.00,WNW,292,1.3,1.3,51,-99.99,,,-99.99,tws,2013-05-13 19:09:00,
2013-05-13 15:14:00,50.0,31.3,30.00,WNW,292,10.0,10.0,48,-99.99,,,-99.99,tws,2013-05-13 19:14:00,
2013-05-13 15:19:00,51.0,32.1,30.00,North,0,2.1,2.1,48,-99.99,,,-99.99,tws,2013-05-13 19:19:00,
2013-05-13 15:24:00,50.9,33.4,30.00,NNW,337,4.4,4.4,50,-99.99,,,-99.99,tws,2013-05-13 19:24:00,
2013-05-13 15:29:00,49.8,30.9,30.00,NNW,337,0.9,0.9,47,-99.99,,,-99.99,tws,2013-05-13 19:29:00,
2013-05-13 15:34:00,49.7,32.1,30.00,NNE,22,6.5,6.5,50,-99.99,,,-99.99,tws,2013-05-13 19:34:00,
2013-05-13 15:40:00,50.8,33.6,30.00,NE,45,0.4,0.4,51,-99.99,,,-99.99,tws,2013-05-13 19:40:00,
2013-05-13 15:45:00,49.2,32.2,30.00,West,270,4.6,4.6,51,-99.99,,,-99.99,tws,2013-05-13 19:45:00,
2013-05-13 15:50:00,49.6,31.1,30.00,NNW,337,5.1,5.1,48,-99.99,,,-99.99,tws,2013-05-13 19:50:00,
2013-05-13 15:55:00,51.9,33.6,30.00,WNW,292,0.0,0.0,49,-99.99,,,-99.99,tws,2013-05-13 19:55:00,
2013-05-13 16:01:00,56.0,35.0,29.99,South,180,0.0,0.0,44,-99.99,,,-99.99,tws,2013-05-13 20:01:00,
2013-05-13 16:06:00,57.0,33.6,30.00,SW,225,3.3,3.3,40,-99.99,,,-99.99,tws,2013-05-13 20:06:00,
2013-05-13 16:11:00,54.1,32.5,29.99,West,270,13.9,13.9,43,-99.99,,,-99.99,tws,2013-05-13 20:11:00,
2013-05-13 16:16:00,55.1,33.0,30.00,West,270,9.5,9.5,42,-99.99,,,-99.99,tws,2013-05-13 20:16:00,
2013-05-13 16:21:00,54.9,32.5,30.00,South,180,11.6,11.6,42,-99.99,,,-99.99,tws,2013-05-13 20:21:00,
2013-05-13 16:26:00,55.1,34.8,29.99,South,180,2.1,2.1,45,-99.99,,,-99.99,tws,2013-05-13 20:26:00,
2013-05-13 16:31:00,50.5,30.9,29.99,WNW,292,2.9,2.9,46,-99.99,,,-99.99,tws,2013-05-13 20:31:00,
2013-05-13 16:36:00,52.2,32.2,29.99,WNW,292,1.9,1.9,46,-99.99,,,-99.99,tws,2013-05-13 20:36:00,
2013-05-13 16:41:00,51.9,32.4,29.99,North,0,0.1,0.1,47,-99.99,,,-99.99,tws,2013-05-13 20:41:00,
2013-05-13 16:46:00,49.6,29.9,30.00,WNW,292,4.5,4.5,46,-99.99,,,-99.99,tws,2013-05-13 20:46:00,
2013-05-13 16:51:00,50.7,31.8,29.99,WNW,292,0.0,0.0,48,-99.99,,,-99.99,tws,2013-05-13 20:51:00,
2013-05-13 16:56:00,50.1,32.0,30.00,WNW,292,3.0,3.0,49,-99.99,,,-99.99,tws,2013-05-13 20:56:00,
2013-05-13 17:01:00,49.0,30.5,30.00,West,270,16.0,16.0,48,-99.99,,,-99.99,tws,2013-05-13 21:01:00,
2013-05-13 17:06:00,49.2,30.5,30.00,NNW,337,15.6,15.6,48,-99.99,,,-99.99,tws,2013-05-13 21:06:00,
2013-05-13 17:11:00,48.6,30.5,30.00,WNW,292,22.2,22.2,49,-99.99,,,-99.99,tws,2013-05-13 21:11:00,
2013-05-13 17:16:00,48.5,30.8,30.00,NNW,337,20.9,20.9,50,-99.99,,,-99.99,tws,2013-05-13 21:16:00,
2013-05-13 17:21:00,48.5,31.0,30.00,NW,315,11.9,11.9,50,-99.99,,,-99.99,tws,2013-05-13 21:21:00,
2013-05-13 17:26:00,48.6,31.9,30.00,SSW,202,7.8,7.8,52,-99.99,,,-99.99,tws,2013-05-13 21:26:00,
2013-05-13 17:31:00,48.5,31.9,30.00,West,270,5.7,5.7,52,-99.99,,,-99.99,tws,2013-05-13 21:31:00,
2013-05-13 17:36:00,48.1,31.1,30.00,WNW,292,13.8,13.8,51,-99.99,,,-99.99,tws,2013-05-13 21:36:00,
2013-05-13 17:41:00,48.5,31.5,30.00,NW,315,9.7,9.7,51,-99.99,,,-99.99,tws,2013-05-13 21:41:00,
2013-05-13 17:46:00,48.7,31.9,30.00,WSW,247,4.0,4.0,51,-99.99,,,-99.99,tws,2013-05-13 21:46:00,
2013-05-13 17:51:00,49.1,31.7,30.00,NW,315,5.4,5.4,50,-99.99,,,-99.99,tws,2013-05-13 21:51:00,
2013-05-13 17:56:00,50.7,33.6,30.00,NW,315,0.5,0.5,51,-99.99,,,-99.99,tws,2013-05-13 21:56:00,
2013-05-13 18:01:00,49.9,32.6,30.00,West,270,1.3,1.3,51,-99.99,,,-99.99,tws,2013-05-13 22:01:00,
2013-05-13 18:06:00,49.3,32.8,30.00,North,360,9.0,9.0,52,-99.99,,,-99.99,tws,2013-05-13 22:06:00,
2013-05-13 18:11:00,49.0,32.8,30.00,NNE,22,9.5,9.5,53,-99.99,,,-99.99,tws,2013-05-13 22:11:00,
2013-05-13 18:16:00,48.0,32.6,30.00,West,270,7.8,7.8,54,-99.99,,,-99.99,tws,2013-05-13 22:16:00,
2013-05-13 18:21:00,51.2,34.2,30.00,NE,45,0.4,0.4,51,-99.99,,,-99.99,tws,2013-05-13 22:21:00,
2013-05-13 18:26:00,49.1,32.8,30.00,NNE,22,11.2,11.2,53,-99.99,,,-99.99,tws,2013-05-13 22:26:00,
2013-05-13 18:31:00,49.7,33.5,30.00,East,90,6.4,6.4,53,-99.99,,,-99.99,tws,2013-05-13 22:31:00,
2013-05-13 18:36:00,50.5,35.0,30.00,North,360,2.0,2.0,55,-99.99,,,-99.99,tws,2013-05-13 22:36:00,
2013-05-13 18:41:00,50.2,35.5,30.00,NE,45,0.2,0.2,56,-99.99,,,-99.99,tws,2013-05-13 22:41:00,
2013-05-13 18:46:00,52.5,35.5,30.01,West,270,0.7,0.7,52,-99.99,,,-99.99,tws,2013-05-13 22:46:00,
2013-05-13 18:51:00,55.4,36.9,30.01,ENE,67,3.1,3.1,49,-99.99,,,-99.99,tws,2013-05-13 22:51:00,
2013-05-13 18:56:00,50.7,34.5,30.01,North,0,2.0,2.0,53,-99.99,,,-99.99,tws,2013-05-13 22:56:00,
2013-05-13 19:01:00,49.2,34.0,30.01,North,360,0.0,0.0,55,-99.99,,,-99.99,tws,2013-05-13 23:01:00,
2013-05-13 19:06:00,48.5,33.6,30.01,WNW,292,0.0,0.0,56,-99.99,,,-99.99,tws,2013-05-13 23:06:00,
2013-05-13 19:11:00,48.9,33.3,30.01,NNW,337,3.5,3.5,54,-99.99,,,-99.99,tws,2013-05-13 23:11:00,
2013-05-13 19:16:00,49.7,33.5,30.01,North,360,9.8,9.8,53,-99.99,,,-99.99,tws,2013-05-13 23:16:00,
2013-05-13 19:21:00,48.5,31.9,30.02,NNW,337,10.2,10.2,52,-99.99,,,-99.99,tws,2013-05-13 23:21:00,
2013-05-13 19:26:00,48.7,33.0,30.02,West,270,6.1,6.1,54,-99.99,,,-99.99,tws,2013-05-13 23:26:00,
2013-05-13 19:31:00,47.4,32.0,30.02,WNW,292,7.9,7.9,54,-99.99,,,-99.99,tws,2013-05-13 23:31:00,
2013-05-13 19:36:00,47.0,31.9,30.02,NW,315,9.8,9.8,55,-99.99,,,-99.99,tws,2013-05-13 23:36:00,
2013-05-13 19:41:00,47.1,32.6,30.02,North,360,3.4,3.4,56,-99.99,,,-99.99,tws,2013-05-13 23:41:00,
2013-05-13 19:46:00,46.4,32.7,30.03,NNW,337,3.2,3.2,58,-99.99,,,-99.99,tws,2013-05-13 23:46:00,
2013-05-13 19:51:00,46.4,32.3,30.03,WNW,292,9.4,9.4,57,-99.99,,,-99.99,tws,2013-05-13 23:51:00,
2013-05-13 19:56:00,46.4,31.9,30.03,NNW,337,15.7,15.7,56,-99.99,,,-99.99,tws,2013-05-13 23:56:00,
2013-05-13 20:01:00,46.1,31.9,30.03,NE,45,6.2,6.2,57,-99.99,,,-99.99,tws,2013-05-14 00:01:00,
2013-05-13 20:06:00,46.1,31.5,30.03,West,270,11.4,11.4,56,-99.99,,,-99.99,tws,2013-05-14 00:06:00,
2013-05-13 20:11:00,46.0,30.9,30.04,WNW,292,17.8,17.8,55,-99.99,,,-99.99,tws,2013-05-14 00:11:00,
2013-05-13 20:16:00,45.6,31.5,30.04,West,270,4.2,4.2,57,-99.99,,,-99.99,tws,2013-05-14 00:16:00,
2013-05-13 20:21:00,45.5,30.9,30.04,NW,315,15.0,15.0,56,-99.99,,,-99.99,tws,2013-05-14 00:21:00,
2013-05-13 20:26:00,45.2,30.9,30.04,NW,315,10.4,10.4,57,-99.99,,,-99.99,tws,2013-05-14 00:26:00,
2013-05-13 20:31:00,45.0,30.8,30.05,NW,315,8.8,8.8,57,-99.99,,,-99.99,tws,2013-05-14 00:31:00,
2013-05-13 20:36:00,44.7,31.0,30.05,NW,315,5.6,5.6,58,-99.99,,,-99.99,tws,2013-05-14 00:36:00,
2013-05-13 20:42:00,44.6,31.0,30.05,WNW,292,9.4,9.4,58,-99.99,,,-99.99,tws,2013-05-14 00:42:00,
2013-05-13 20:47:00,44.4,30.7,30.05,WNW,292,12.5,12.5,58,-99.99,,,-99.99,tws,2013-05-14 00:47:00,
2013-05-13 20:53:00,44.2,31.0,30.05,NNW,337,2.7,2.7,59,-99.99,,,-99.99,tws,2013-05-14 00:53:00,
2013-05-13 20:58:00,43.8,31.0,30.05,West,270,3.5,3.5,60,-99.99,,,-99.99,tws,2013-05-14 00:58:00,
2013-05-13 21:03:00,43.7,30.9,30.06,NW,315,6.1,6.1,60,-99.99,,,-99.99,tws,2013-05-14 01:03:00,
2013-05-13 21:08:00,43.5,31.1,30.06,NNW,337,0.4,0.4,61,-99.99,,,-99.99,tws,2013-05-14 01:08:00,
2013-05-13 21:13:00,43.5,31.2,30.07,NW,315,2.5,2.5,61,-99.99,,,-99.99,tws,2013-05-14 01:13:00,
2013-05-13 21:18:00,43.4,31.1,30.07,West,270,7.8,7.8,61,-99.99,,,-99.99,tws,2013-05-14 01:18:00,
2013-05-13 21:23:00,43.0,31.2,30.07,West,270,6.4,6.4,62,-99.99,,,-99.99,tws,2013-05-14 01:23:00,
2013-05-13 21:28:00,42.8,31.2,30.07,WNW,292,5.5,5.5,63,-99.99,,,-99.99,tws,2013-05-14 01:28:00,
2013-05-13 21:33:00,42.8,31.3,30.07,NW,315,4.4,4.4,63,-99.99,,,-99.99,tws,2013-05-14 01:33:00,
2013-05-13 21:38:00,42.8,31.3,30.07,NW,315,2.6,2.6,63,-99.99,,,-99.99,tws,2013-05-14 01:38:00,
2013-05-13 21:43:00,42.8,31.2,30.07,West,270,4.4,4.4,63,-99.99,,,-99.99,tws,2013-05-14 01:43:00,
2013-05-13 21:48:00,42.6,31.4,30.07,WNW,292,2.1,2.1,64,-99.99,,,-99.99,tws,2013-05-14 01:48:00,
2013-05-13 21:53:00,42.4,31.1,30.07,WNW,292,1.8,1.8,64,-99.99,,,-99.99,tws,2013-05-14 01:53:00,
2013-05-13 21:58:00,42.6,31.4,30.08,WNW,292,2.7,2.7,64,-99.99,,,-99.99,tws,2013-05-14 01:58:00,
2013-05-13 22:03:00,42.3,31.2,30.08,WNW,292,3.1,3.1,64,-99.99,,,-99.99,tws,2013-05-14 02:03:00,
2013-05-13 22:08:00,42.3,31.5,30.08,NNW,337,3.1,3.1,65,-99.99,,,-99.99,tws,2013-05-14 02:08:00,
2013-05-13 22:13:00,42.3,31.2,30.08,WNW,292,6.6,6.6,64,-99.99,,,-99.99,tws,2013-05-14 02:13:00,
2013-05-13 22:18:00,41.9,31.3,30.08,WNW,292,4.2,4.2,65,-99.99,,,-99.99,tws,2013-05-14 02:18:00,
2013-05-13 22:23:00,42.0,31.3,30.08,WNW,292,3.8,3.8,65,-99.99,,,-99.99,tws,2013-05-14 02:23:00,
2013-05-13 22:28:00,42.0,31.6,30.08,WNW,292,0.0,0.0,66,-99.99,,,-99.99,tws,2013-05-14 02:28:00,
2013-05-13 22:33:00,42.0,31.4,30.08,WNW,292,4.4,4.4,65,-99.99,,,-99.99,tws,2013-05-14 02:33:00,
2013-05-13 22:38:00,41.9,31.7,30.08,WNW,292,0.4,0.4,66,-99.99,,,-99.99,tws,2013-05-14 02:38:00,
2013-05-13 22:43:00,41.7,31.6,30.08,NNW,337,0.0,0.0,66,-99.99,,,-99.99,tws,2013-05-14 02:43:00,
2013-05-13 22:48:00,41.4,31.7,30.08,WNW,292,0.5,0.5,68,-99.99,,,-99.99,tws,2013-05-14 02:48:00,
2013-05-13 22:53:00,40.1,33.1,30.08,NW,315,0.0,0.0,75,-99.99,,,-99.99,tws,2013-05-14 02:53:00,
2013-05-13 22:58:00,40.3,32.7,30.08,NW,315,0.0,0.0,73,-99.99,,,-99.99,tws,2013-05-14 02:58:00,
2013-05-13 23:03:00,40.1,32.2,30.08,NNW,337,0.0,0.0,72,-99.99,,,-99.99,tws,2013-05-14 03:03:00,
2013-05-13 23:08:00,39.8,32.5,30.08,West,270,0.0,0.0,75,-99.99,,,-99.99,tws,2013-05-14 03:08:00,
2013-05-13 23:13:00,38.8,32.6,30.08,West,270,0.0,0.0,78,-99.99,,,-99.99,tws,2013-05-14 03:13:00,
2013-05-13 23:18:00,39.0,32.3,30.08,West,270,0.0,0.0,76,-99.99,,,-99.99,tws,2013-05-14 03:18:00,
2013-05-13 23:23:00,38.7,32.3,30.08,West,270,0.0,0.0,77,-99.99,,,-99.99,tws,2013-05-14 03:23:00,
2013-05-13 23:28:00,38.4,32.4,30.09,WNW,292,0.0,0.0,78,-99.99,,,-99.99,tws,2013-05-14 03:28:00,
2013-05-13 23:33:00,39.0,31.6,30.09,NNW,337,1.7,1.7,74,-99.99,,,-99.99,tws,2013-05-14 03:33:00,
2013-05-13 23:39:00,38.2,32.2,30.09,West,270,0.0,0.0,78,-99.99,,,-99.99,tws,2013-05-14 03:39:00,
2013-05-13 23:44:00,38.7,32.1,30.09,NW,315,1.5,1.5,76,-99.99,,,-99.99,tws,2013-05-14 03:44:00,
2013-05-13 23:49:00,39.1,31.8,30.09,WNW,292,1.5,1.5,74,-99.99,,,-99.99,tws,2013-05-14 03:49:00,
2013-05-13 23:54:00,39.1,31.8,30.09,NW,315,1.1,1.1,74,-99.99,,,-99.99,tws,2013-05-14 03:54:00,
2013-05-13 23:59:00,39.1,31.7,30.09,West,270,5.9,5.9,74,-99.99,,,-99.99,tws,2013-05-14 03:59:00,